[[{"header":{"parameterUnit":"m.s-1","parameterCategory":1,"la1":30.2991,"la2":30.254,"lo1":-89.0895,"lo2":-89.0444,"dy":0.0017,"dx":0.0017,"nx":28,"ny":28,"refTime":"2024-10-13T09:00:00:Z","depth":0,"parameterNumber":2,"parameterNumberName":"U-component_of_WINDS"},"data":[0,0,0,0,0,0,0,0,0,0,0,0,0,0,0,0,0,0,0,0,0,0,0,0,0,0,0,0,0,0,0,0,0,0,0,0,0,0,0,0,0,0,0,0,0,0,0,0,0,0,0,0,0,0,0,0,0,0,2.9538,2.954,0,2.9674,2.9676,2.9677,2.9656,2.9654,2.9651,2.9649,2.979,2.9796,2.9802,0,0,0,0,0,0,0,0,0,0,0,0,0,2.9263,2.9268,2.9538,2.954,2.9542,2.9674,2.9676,2.9678,2.9657,2.9654,2.9651,2.9648,2.9789,2.9796,2.9803,0,0,0,0,0,0,0,0,0,0,0,0,0,2.9389,2.927,2.9538,2.9547,2.9549,2.9674,2.9676,2.9678,2.9657,2.9654,2.965,2.9647,2.9786,2.9795,2.9804,2.9928,0,0,2.9831,2.9835,0,0,0,0,0,0,0,0,2.9382,2.9399,2.9544,2.9547,2.9549,2.9645,2.9631,2.9762,2.9658,2.9616,2.9649,2.9645,2.9745,2.9757,2.979,2.9935,2.9941,2.9832,2.9837,2.9841,2.9843,0,0,0,0,0,0,0,2.9373,2.9393,2.9592,2.9546,2.9549,2.9545,2.9559,2.9656,2.9699,2.962,2.9618,2.9635,2.9746,2.9782,2.9793,2.9943,2.9831,2.9839,2.9845,2.9848,3.0199,3.0203,0,0,0,0,0,0,2.9362,2.9386,2.9588,2.9596,2.9455,2.9553,2.9569,2.9618,2.9697,2.9706,2.9637,2.9633,2.9768,2.9783,2.9798,2.9951,2.9841,2.9849,2.9854,3.0195,3.02,3.0204,0,0,0,0,0,0,2.9356,2.938,2.9582,2.9491,2.9516,2.9561,2.9616,2.9622,2.9658,2.9711,2.9719,2.9666,2.9766,2.9786,2.9897,2.9955,2.9853,2.9861,3.0191,3.0197,3.0202,3.0256,0,0,0,0,0,0,2.9348,2.9378,2.9425,2.9492,2.9521,2.9677,2.962,2.9627,2.9673,2.9669,2.974,2.9748,2.9765,2.9883,2.9905,2.9966,2.9868,3.0186,3.0193,3.02,3.0249,3.0263,3.0275,0,0,0,0,0,2.9338,2.9435,2.9427,2.9452,2.9581,2.9681,2.9698,2.9714,2.9678,2.9726,2.9761,2.9746,2.9945,2.9895,2.9919,2.9983,3.0182,3.0191,3.02,3.0243,3.026,3.0274,0,0,0,0,0,0,2.9373,2.9444,2.9436,2.9557,2.9613,2.9677,2.9738,2.9731,2.9799,2.9792,2.981,2.9827,2.9939,2.9972,2.9915,3.0109,3.0059,3.0073,3.0083,3.01,3.0112,3.0102,2.9875,0,0,0,0,0,2.9395,2.9469,2.9527,2.9628,2.9657,2.9693,2.9737,2.9745,2.9804,2.9827,2.987,2.9928,3.0004,3.0054,3.0127,3.0254,3.027,3.031,3.0323,3.0333,3.0346,3.0417,3.0436,3.0234,3.0234,3.0234,0,0,2.9441,2.9488,2.9534,2.9636,2.9681,2.9758,2.9713,2.9796,2.9855,2.984,2.9948,2.9981,3.0048,3.0168,3.0223,3.0199,3.0405,3.0345,3.0353,3.0359,3.0428,3.0447,3.0464,3.024,3.0239,3.0238,0,0,2.9563,2.9607,2.9696,2.9742,2.9809,2.9833,2.9855,2.992,2.9942,3.005,3.0041,3.0111,3.0241,3.029,3.0331,3.0475,3.0465,3.0498,3.0566,3.0635,3.0651,3.0665,3.0717,3.0736,3.051,3.051,3.0511,0,2.9612,2.9728,2.9743,2.9828,2.9874,2.9865,2.9956,3.0,3.0089,3.0121,3.0093,3.0257,3.0302,3.0433,3.0469,3.0502,3.0529,3.049,3.0647,3.0662,3.0675,3.0725,3.0745,3.0514,3.0514,3.0513,3.0513,0,2.9784,2.9865,2.9929,3.0015,3.0068,3.0156,3.0186,3.0238,3.0242,3.0269,3.038,3.0433,3.0517,3.0549,3.0554,3.0683,3.0666,3.0643,3.0592,3.0698,3.0745,3.0765,3.0519,3.0518,3.0517,3.0516,0,0,2.9932,3.0026,3.0049,3.0088,3.0163,3.0227,3.0315,3.0397,3.0442,3.0504,3.0579,3.0691,3.067,3.0717,3.0728,3.0789,3.0901,3.0758,3.076,3.0783,3.1048,3.1065,3.1087,3.0894,3.0898,3.0901,3.1042,0,3.0062,3.0217,3.0235,3.0374,3.0449,3.0443,3.052,3.0575,3.0604,3.0673,3.0704,3.0783,3.0749,3.0778,3.0838,3.0874,3.0954,3.0864,3.0966,3.097,3.095,3.1111,3.113,3.126,3.1061,3.1064,3.1066,0,3.0235,3.0302,3.0448,3.0514,3.0547,3.0616,3.0693,3.0759,3.0822,3.0838,3.0892,3.0895,3.0988,3.0934,3.1064,3.1002,3.1045,3.107,3.1075,3.1085,3.1024,3.1127,3.1302,3.1322,3.1095,3.1093,3.1091,0,3.0329,3.0456,3.056,3.0594,3.0673,3.0722,3.0758,3.0817,3.0866,3.0934,3.0966,3.1044,3.1087,3.1149,3.1173,3.1132,3.1302,3.125,3.1319,3.1319,3.1355,3.1353,3.1541,3.1383,3.1382,3.1382,3.1381,0,3.0473,3.0563,3.0603,3.0667,3.0769,3.0789,3.0889,3.0923,3.0976,3.1048,3.1047,3.1115,3.1143,3.1216,3.1236,3.1341,3.136,3.1377,3.1381,3.1377,3.1375,3.1406,3.1397,3.1387,3.1386,3.1385,3.1384,0,3.0595,3.0625,3.0739,3.0805,3.0824,3.0896,3.0953,3.1016,3.1044,3.1135,3.1157,3.1202,3.1287,3.1318,3.1422,3.1436,3.1558,3.1554,3.1536,3.1537,3.1605,3.1599,3.182,3.185,3.1672,3.1673,3.1675,0,3.0685,3.0754,3.0828,3.0876,3.0913,3.099,3.1039,3.1062,3.1115,3.1193,3.1247,3.1332,3.1401,3.1539,3.1581,3.1661,3.166,3.1732,3.1672,3.1667,3.1662,3.1658,3.1666,3.1743,3.1745,3.1747,3.1748,0,3.0842,3.0854,3.0925,3.1003,3.1062,3.1124,3.1185,3.1224,3.1256,3.1315,3.1403,3.1456,3.1563,3.1648,3.1731,3.1769,3.1765,3.1766,3.1787,3.1784,3.1771,3.178,3.1567,3.1761,3.176,3.1759,3.1758,3.1758,3.0951,3.1013,3.1075,3.1155,3.1203,3.126,3.1322,3.1358,3.1431,3.1519,3.1529,3.1623,3.1687,3.1797,3.1839,3.1915,3.1895,3.1924,3.1932,3.1939,3.1945,3.1758,3.193,3.1929,3.1929,3.1929,3.1929,0,3.1109,3.1149,3.1222,3.1307,3.137,3.136,3.1427,3.1481,3.1564,3.1623,3.1691,3.1793,3.1876,3.1925,3.2009,3.206,3.206,3.2081,3.2078,3.2087,3.1957,3.1931,3.2079,3.2079,3.2079,3.2079,3.2079,3.2079,3.1198,3.1303,3.1322,3.1451,3.1491,3.1582,3.1622,3.1675,3.1722,3.1835,3.1904,3.1935,3.1991,3.2079,3.2156,3.2168,3.22,3.2223,3.2234,3.2111,3.2096,3.2081,3.2057,3.2229,3.2229,3.2357,3.2359,3.236]},{"header":{"parameterUnit":"m.s-1","parameterCategory":1,"la1":30.2991,"la2":30.254,"lo1":-89.0895,"lo2":-89.0444,"dy":0.0017,"dx":0.0017,"nx":28,"ny":28,"refTime":"2024-10-13T09:00:00:Z","depth":0,"parameterNumber":3,"parameterNumberName":"V-component_of_WINDS"},"data":[0,0,0,0,0,0,0,0,0,0,0,0,0,0,0,0,0,0,0,0,0,0,0,0,0,0,0,0,0,0,0,0,0,0,0,0,0,0,0,0,0,0,0,0,0,0,0,0,0,0,0,0,0,0,0,0,0,0,-0.457,-0.457,0,-0.4603,-0.4603,-0.4604,-0.4641,-0.4641,-0.4642,-0.4642,-0.4674,-0.4674,-0.4675,0,0,0,0,0,0,0,0,0,0,0,0,0,-0.4536,-0.4536,-0.457,-0.457,-0.457,-0.4603,-0.4603,-0.4604,-0.4641,-0.4641,-0.4642,-0.4643,-0.4674,-0.4674,-0.4675,0,0,0,0,0,0,0,0,0,0,0,0,0,-0.4558,-0.4536,-0.4569,-0.4593,-0.4595,-0.4603,-0.4603,-0.4604,-0.4641,-0.4641,-0.4642,-0.4643,-0.4674,-0.4674,-0.4675,-0.4661,0,0,-0.4676,-0.4676,0,0,0,0,0,0,0,0,-0.4556,-0.4559,-0.4589,-0.4591,-0.4594,-0.4619,-0.4603,-0.4623,-0.464,-0.4623,-0.4642,-0.4643,-0.4655,-0.4657,-0.4661,-0.4663,-0.4664,-0.4676,-0.4677,-0.4677,-0.4677,0,0,0,0,0,0,0,-0.4555,-0.4558,-0.4583,-0.4589,-0.4592,-0.4601,-0.4605,-0.4607,-0.4634,-0.4625,-0.4628,-0.4631,-0.4656,-0.4661,-0.4662,-0.4664,-0.4676,-0.4677,-0.4677,-0.4677,-0.4656,-0.4655,0,0,0,0,0,0,-0.455,-0.4556,-0.4582,-0.4584,-0.4577,-0.4601,-0.4605,-0.461,-0.4634,-0.4639,-0.463,-0.4633,-0.4659,-0.4662,-0.4663,-0.4649,-0.4677,-0.4677,-0.4678,-0.4657,-0.4656,-0.4655,0,0,0,0,0,0,-0.4549,-0.4552,-0.458,-0.4571,-0.4575,-0.4601,-0.4605,-0.461,-0.4615,-0.4638,-0.4643,-0.463,-0.466,-0.4663,-0.4662,-0.465,-0.4677,-0.4678,-0.4658,-0.4656,-0.4655,-0.4619,0,0,0,0,0,0,-0.4548,-0.4551,-0.4547,-0.457,-0.4575,-0.4578,-0.4605,-0.461,-0.4616,-0.4619,-0.4639,-0.4643,-0.4661,-0.4661,-0.4662,-0.4651,-0.4678,-0.4659,-0.4657,-0.4656,-0.4621,-0.4617,-0.4613,0,0,0,0,0,-0.4547,-0.4535,-0.4547,-0.455,-0.4571,-0.4578,-0.458,-0.4602,-0.4615,-0.461,-0.4625,-0.4643,-0.4652,-0.466,-0.4662,-0.4651,-0.466,-0.4658,-0.4656,-0.4623,-0.4618,-0.4613,0,0,0,0,0,0,-0.4509,-0.4539,-0.4552,-0.4547,-0.456,-0.4584,-0.4579,-0.4595,-0.4603,-0.4606,-0.4631,-0.4636,-0.4631,-0.4641,-0.4651,-0.4639,-0.4658,-0.4656,-0.4633,-0.4628,-0.4623,-0.462,-0.4679,0,0,0,0,0,-0.45,-0.4504,-0.453,-0.4523,-0.4529,-0.4553,-0.4557,-0.4572,-0.4586,-0.4591,-0.4606,-0.4618,-0.4623,-0.4626,-0.4632,-0.4623,-0.4628,-0.4617,-0.4613,-0.4609,-0.4607,-0.4602,-0.4597,-0.4649,-0.4649,-0.4649,0,0,-0.4482,-0.4499,-0.4499,-0.4516,-0.4528,-0.453,-0.4557,-0.4559,-0.4561,-0.4591,-0.4591,-0.4602,-0.4617,-0.4612,-0.461,-0.462,-0.4594,-0.4607,-0.4604,-0.4603,-0.46,-0.4595,-0.459,-0.4647,-0.4647,-0.4648,0,0,-0.445,-0.4463,-0.4459,-0.447,-0.4488,-0.4504,-0.4503,-0.4525,-0.4534,-0.4534,-0.4556,-0.4559,-0.4568,-0.4578,-0.4583,-0.4555,-0.4571,-0.4557,-0.4534,-0.4529,-0.4525,-0.4521,-0.451,-0.4506,-0.4555,-0.4555,-0.4555,0,-0.4424,-0.443,-0.4455,-0.4456,-0.4462,-0.449,-0.4486,-0.4495,-0.4513,-0.4517,-0.4528,-0.454,-0.4552,-0.4549,-0.4542,-0.4546,-0.4545,-0.4554,-0.4524,-0.452,-0.4517,-0.4507,-0.4503,-0.4553,-0.4553,-0.4553,-0.4553,0,-0.4398,-0.4402,-0.4396,-0.4414,-0.442,-0.4418,-0.4441,-0.4444,-0.4459,-0.4474,-0.4473,-0.4489,-0.4499,-0.45,-0.4514,-0.4498,-0.4504,-0.4519,-0.4538,-0.451,-0.4501,-0.4497,-0.455,-0.4551,-0.4551,-0.4552,0,0,-0.4342,-0.4374,-0.4371,-0.4379,-0.4401,-0.4404,-0.4403,-0.4413,-0.4415,-0.4427,-0.4426,-0.4433,-0.4447,-0.4454,-0.447,-0.4466,-0.4441,-0.4481,-0.4482,-0.4472,-0.4424,-0.4412,-0.4407,-0.4453,-0.4452,-0.4452,-0.4422,0,-0.4313,-0.4314,-0.4336,-0.433,-0.4333,-0.4361,-0.436,-0.4372,-0.4386,-0.439,-0.4405,-0.441,-0.4428,-0.4433,-0.443,-0.4445,-0.4432,-0.4447,-0.4451,-0.4451,-0.4445,-0.4402,-0.4389,-0.4361,-0.4419,-0.4418,-0.4418,0,-0.4279,-0.4289,-0.4284,-0.4305,-0.4308,-0.4306,-0.4318,-0.4322,-0.4336,-0.4347,-0.4354,-0.4373,-0.4373,-0.4392,-0.4391,-0.4401,-0.4404,-0.4412,-0.4411,-0.4411,-0.4432,-0.44,-0.4352,-0.4347,-0.4413,-0.4413,-0.4414,0,-0.4237,-0.425,-0.4248,-0.4254,-0.428,-0.4278,-0.4289,-0.4304,-0.4309,-0.4319,-0.4322,-0.4331,-0.4336,-0.4342,-0.4362,-0.4375,-0.4359,-0.438,-0.4367,-0.4366,-0.4361,-0.4361,-0.4312,-0.4365,-0.4365,-0.4365,-0.4365,0,-0.4201,-0.4197,-0.423,-0.4228,-0.4224,-0.425,-0.4244,-0.4257,-0.4271,-0.4272,-0.4296,-0.4297,-0.4324,-0.4327,-0.4343,-0.434,-0.4342,-0.4349,-0.4353,-0.4346,-0.4345,-0.4347,-0.4349,-0.4364,-0.4364,-0.4364,-0.4365,0,-0.4153,-0.4175,-0.4175,-0.42,-0.4206,-0.4201,-0.4222,-0.4221,-0.4237,-0.4238,-0.424,-0.4264,-0.4269,-0.429,-0.43,-0.431,-0.4301,-0.431,-0.4296,-0.4299,-0.4284,-0.4284,-0.4233,-0.4228,-0.4285,-0.4285,-0.4284,0,-0.4128,-0.4126,-0.415,-0.4153,-0.4162,-0.4167,-0.4172,-0.4197,-0.4201,-0.4218,-0.4215,-0.4223,-0.423,-0.4237,-0.4254,-0.4262,-0.427,-0.4252,-0.4271,-0.4264,-0.4268,-0.4268,-0.4267,-0.4247,-0.4246,-0.4246,-0.4245,0,-0.4082,-0.4093,-0.41,-0.4111,-0.4116,-0.4126,-0.4137,-0.4138,-0.4165,-0.4169,-0.4175,-0.418,-0.4191,-0.4197,-0.4208,-0.4218,-0.4236,-0.4239,-0.4236,-0.4228,-0.422,-0.4223,-0.4284,-0.424,-0.424,-0.4241,-0.4241,-0.4241,-0.4044,-0.4042,-0.4059,-0.4066,-0.4077,-0.4087,-0.4087,-0.4103,-0.4109,-0.412,-0.4135,-0.4138,-0.4153,-0.4169,-0.4178,-0.4181,-0.4191,-0.4187,-0.4185,-0.4184,-0.418,-0.4221,-0.4183,-0.4183,-0.4183,-0.4183,-0.4184,0,-0.3997,-0.401,-0.4016,-0.4031,-0.4036,-0.4054,-0.4067,-0.4069,-0.4073,-0.4085,-0.4092,-0.4099,-0.4105,-0.4124,-0.4132,-0.413,-0.4139,-0.4132,-0.4131,-0.4133,-0.4171,-0.4172,-0.4125,-0.4125,-0.4125,-0.4125,-0.4125,-0.4125,-0.3973,-0.3972,-0.3985,-0.3989,-0.4001,-0.4006,-0.4012,-0.402,-0.403,-0.4037,-0.4043,-0.4055,-0.407,-0.4079,-0.4086,-0.4091,-0.4092,-0.4082,-0.409,-0.4125,-0.413,-0.4136,-0.4137,-0.4083,-0.4083,-0.4052,-0.4051,-0.4051]}]]